STARLINK-3135, 49424

Orbit data source: Space-Track

STARLINK-3135, 49424 is a payload satellite owned by SpaceX/Seattle (US) in LEO that was launched on Sat, 13 Nov 2021 UTC via an FALCON 9 launch vehicle from the Air Force Eastern Test Range (AFETR). Payload-class satellites include a variety of spacecraft equipped with specific instruments for various scientific and technological missions. These include communications satellites like Starlink; space stations such as the ISS; scientific satellites like the Hubble; Earth observation satellites from companies like Planet Labs, Umbra, and HawkEye 360; GPS; miniature CubeSats for education and research; and military/defense satellites.

Loading next visibility...
Identifier
49424, 2021-104S
Orbit
LEO
Country
Flag of USUS
Related business
Manufacturer
SpaceX/Seattle
Mission
Operational Commercial Communications
Bus & Motor
STARLINK, Unknown motor
Mass
290 kg wet, ~270 kg dry
Launch date (UTC)
2021-11-13 (5 years ago)
Launch vehicle
FALCON 9
Launch site
Air Force Eastern Test Range (AFETR)
Object type
Payload
Rocket body
Debris
Shape & HBR
Box + 1 Pan, 10.1 m
Radar Cross Section
13.562 m², Large (>1 m²)

Expand to show TLE details & history
Last TLE update: 1 week ago

TLE from 1 week ago
0 STARLINK-3135
1 49424U 21104S   26152.48353707  .00000370  00000-0  41344-4 0  9994
2 49424  53.1899 212.9410 0001262  75.8687 284.2445 15.08837585251277
Epoch: 2026-06-01T11:36Z
TLE epoch observation values (Epoch: 2026-06-01T11:36:17.602Z)
Latitude
-0.00004°
Longitude
148.89742°
Altitude
540.431 km
Speed
7.593 km/s
True Right ascension
14h 11m 45s
True Declination
0° 00' 00"
Sunlit
Object was in full shadow at epoch
Visualization orbit readout
Latitude
Unknown
Longitude
Unknown
Altitude
Unknown
Speed
Unknown
Apparent Right ascension
Unknown
Apparent Declination
Unknown
Sunlit
N/A
Visualization observer readout
Local Sidereal Time
13:26:59
Azimuth
Unknown
Elevation
Unknown
Doppler factor
Unknown
Orbital elements
Apogee altitude
540.873 km
Perigee altitude
539.127 km
Semi-major axis
6,918.137 km
Eccentricity
0.00013
Inclination
53.1899°
RAAN
212.941°
Arg. of periapsis
75.8687°
True anomaly
284.23048°
Mean anomaly
284.2445°
Eccentric anomaly
284.23749°
Mean motion
3.77189 °/min
Orbital period
95.44 mins
BSTAR
0.000041344
Loading maneuver chart data...
Computing Atmospheric mass density...
Loading historical data...
Loading historical data...
Loading historical data...
Loading historical data...
Loading historical data...
Loading historical data...
Loading historical data...

Documentation

Showing up to 5 results
|